Waarnemingen

Advertentie
Mijn weer
La Coruna/Alvedro, Spanje (8002): temperatuur & dauwpunt: 11.10.2018 05:00:00 - 17.10.2018 05:00:00 (CEST)La Coruna/Alvedro, Spanje (8002): windsnelheid: 11.10.2018 05:00:00 - 17.10.2018 05:00:00 (CEST)La Coruna/Alvedro, Spanje (8002): windrichting: 11.10.2018 05:00:00 - 17.10.2018 05:00:00 (CEST)La Coruna/Alvedro, Spanje (8002): luchtdruk: 11.10.2018 05:00:00 - 17.10.2018 05:00:00 (CEST)La Coruna/Alvedro, Spanje (8002): zicht: 11.10.2018 05:00:00 - 17.10.2018 05:00:00 (CEST)
Datum & Tijd tt [°C] td [°C] ff [km/u] ff [kn] dd ppp [hPa] vv [km]
17.10.2018 05:00:00 13,7 12,3 5 3 ZO 1018,5 10
17.10.2018 04:00:00 14,1 12,7 5 3 ZO 1018,7 10
17.10.2018 03:00:00 14,2 12,9 8 4 ZZO 1019,2 10
17.10.2018 02:00:00 14,6 13,3 4 2 Z 1019,4 10
17.10.2018 01:00:00 14,7 13,2 4 2 Z 1019,8 14
17.10.2018 00:00:00 14,8 13,3 4 2 ZZO 1019,9 15
16.10.2018 23:00:00 14,8 13,7 0 0 N 1019,8 10
16.10.2018 22:00:00 14,9 13,8 0 0 N 1019,5 10
16.10.2018 21:00:00 14,6 13,6 2 1 - 1019,5 10
16.10.2018 20:00:00 15,0 13,7 5 3 NNW 1019,1 10
16.10.2018 19:00:00 16,8 13,5 13 7 N 1018,6 10
16.10.2018 18:00:00 17,6 12,9 11 6 N 1018,2 10
16.10.2018 17:00:00 17,7 12,5 13 7 N 1018,1 10
16.10.2018 16:00:00 17,6 13,1 13 7 NNO 1017,9 10
16.10.2018 15:00:00 18,4 12,2 9 5 N 1018,0 10
16.10.2018 14:00:00 18,2 11,1 8 4 NNO 1018,1 10
16.10.2018 13:00:00 17,9 10,8 2 1 - 1017,9 10
16.10.2018 12:00:00 16,2 10,8 9 5 Z 1017,8 10
16.10.2018 11:00:00 13,7 10,2 5 3 Z 1017,6 10
16.10.2018 10:00:00 10,7 9,8 0 0 N 1017,0 10
16.10.2018 09:00:00 9,3 9,0 8 4 Z 1015,9 10
16.10.2018 08:00:00 9,4 9,1 8 4 Z 1015,4 10
16.10.2018 07:00:00 9,0 8,8 11 6 ZZO 1014,9 3,7
16.10.2018 06:00:00 9,4 9,3 11 6 ZZW 1014,5 10
16.10.2018 05:00:00 9,5 9,3 0 0 N 1014,0 7
16.10.2018 04:00:00 10,2 9,9 9 5 Z 1013,6 0,3
16.10.2018 03:00:00 10,7 10,4 9 5 Z 1013,6 0,9
16.10.2018 02:00:00 11,2 10,9 8 4 Z 1013,3 8
16.10.2018 01:00:00 12,1 11,6 5 3 Z 1013,0 8
16.10.2018 00:00:00 12,7 11,9 8 4 Z 1012,4 10
15.10.2018 23:00:00 13,8 12,9 5 3 ZZW 1011,6 10
15.10.2018 22:00:00 14,0 12,9 8 4 ZZW 1010,6 19
15.10.2018 21:00:00 15,1 13,0 5 3 ZZW 1009,9 10
15.10.2018 20:00:00 16,7 13,2 4 2 NW 1009,0 10
15.10.2018 19:00:00 17,7 12,8 5 3 NNW 1008,1 10
15.10.2018 18:00:00 17,3 13,0 8 4 N 1007,5 10
15.10.2018 17:00:00 19,0 12,7 4 2 N 1006,7 30
15.10.2018 16:00:00 20,9 13,7 11 6 ZZO 1005,6 10
15.10.2018 15:00:00 18,7 13,1 16 9 Z 1005,5 10
15.10.2018 14:00:00 17,6 13,3 18 10 ZO 1005,1 10
15.10.2018 13:00:00 16,2 12,3 21 11 ZZO 1004,6 10
15.10.2018 12:00:00 14,8 12,3 24 13 ZZO 1003,5 10
15.10.2018 11:00:00 13,7 11,7 18 10 ZZO 1003,1 30
15.10.2018 10:00:00 12,5 11,6 9 5 ZZO 1002,5 10
15.10.2018 09:00:00 12,1 11,3 13 7 ZZO 1001,9 12
15.10.2018 08:00:00 12,3 11,0 16 9 ZZO 1002,1 8
15.10.2018 07:00:00 11,9 10,6 16 9 ZZO 1001,8 30
15.10.2018 06:00:00 12,3 10,7 21 11 Z 1002,0 6
15.10.2018 05:00:00 12,1 10,0 22 12 Z 1001,7 10
15.10.2018 04:00:00 11,8 9,4 28 15 Z 1002,8 10
15.10.2018 03:00:00 13,1 9,2 31 17 Z 1004,7 30
15.10.2018 02:00:00 13,3 8,8 24 13 ZZO 1005,8 13
15.10.2018 01:00:00 13,3 9,2 24 13 ZZO 1007,6 10
15.10.2018 00:00:00 13,0 9,4 22 12 Z 1009,4 30
14.10.2018 23:00:00 13,0 9,1 11 6 Z 1010,5 10
14.10.2018 22:00:00 12,5 10,0 5 3 Z 1011,4 10
14.10.2018 21:00:00 12,6 10,1 5 3 Z 1011,8 10
14.10.2018 20:00:00 13,8 9,6 5 3 W 1012,1 10
14.10.2018 19:00:00 15,1 9,2 5 3 NNW 1012,2 10
14.10.2018 18:00:00 15,3 9,6 8 4 NW 1012,4 10
14.10.2018 17:00:00 15,5 9,5 15 8 NNW 1012,9 29
14.10.2018 16:00:00 15,6 8,9 11 6 NW 1013,3 10
14.10.2018 15:00:00 15,7 9,1 21 11 NNW 1013,5 10
14.10.2018 14:00:00 15,6 9,2 26 14 NNW 1013,6 22
14.10.2018 13:00:00 15,3 11,1 22 12 NW 1014,0 10
14.10.2018 12:00:00 14,2 11,0 21 11 NNW 1013,4 10
14.10.2018 11:00:00 12,1 11,3 26 14 N 1012,6 10
14.10.2018 10:00:00 12,6 11,2 26 14 NNW 1011,4 7
14.10.2018 09:00:00 12,5 11,4 15 8 NW 1010,5 17
14.10.2018 08:00:00 10,5 9,9 4 2 Z 1009,5 10
14.10.2018 07:00:00 10,9 10,3 8 4 ZO 1008,9 10
14.10.2018 06:00:00 11,1 10,5 11 6 Z 1008,3 10
14.10.2018 05:00:00 11,2 10,1 5 3 ZZW 1008,2 10
14.10.2018 04:00:00 11,1 9,7 5 3 NW 1008,0 10
14.10.2018 03:00:00 11,7 11,2 11 6 NNW 1007,7 10
14.10.2018 02:00:00 12,0 11,6 13 7 N 1007,2 7
14.10.2018 01:00:00 12,1 11,6 8 4 NNO 1008,7 7
14.10.2018 00:00:00 11,8 11,2 5 3 N 1008,6 7
13.10.2018 23:00:00 11,8 11,0 5 3 NNW 1009,8 4,2
13.10.2018 22:00:00 12,4 10,8 8 4 NNW 1010,1 10
13.10.2018 21:00:00 12,7 11,9 18 10 NNW 1010,3 6
13.10.2018 20:00:00 13,8 12,5 15 8 NNW 1010,6 7
13.10.2018 19:00:00 14,3 12,3 22 12 NNW 1010,3 10
13.10.2018 18:00:00 21,9 14,5 26 14 ZZW 1008,7 10
13.10.2018 17:00:00 24,2 14,9 22 12 ZW 1008,2 30
13.10.2018 16:00:00 25,4 13,7 34 18 ZZW 1008,1 30
13.10.2018 15:00:00 26,3 13,6 28 15 ZZW 1008,5 10
13.10.2018 14:00:00 25,0 12,9 42 23 Z 1009,3 10
13.10.2018 13:00:00 24,2 13,7 34 18 Z 1010,5 10
13.10.2018 12:00:00 22,3 13,4 28 15 ZZW 1011,1 10
13.10.2018 11:00:00 20,5 12,8 37 20 ZZW 1011,5 19
13.10.2018 10:00:00 20,3 12,6 28 15 ZZW 1011,8 10
13.10.2018 09:00:00 20,7 12,4 26 14 ZZW 1011,1 10
13.10.2018 08:00:00 20,5 13,0 41 22 ZZW 1010,4 10
13.10.2018 07:00:00 20,6 13,5 34 18 Z 1010,2 10
13.10.2018 06:00:00 20,7 13,6 37 20 Z 1010,2 30
13.10.2018 05:00:00 20,8 13,7 37 20 ZZW 1010,0 10
13.10.2018 04:00:00 20,8 14,0 31 17 Z 1010,5 10
13.10.2018 03:00:00 20,9 14,5 35 19 Z 1011,4 10
13.10.2018 02:00:00 20,9 15,2 29 16 Z 1012,1 10
13.10.2018 01:00:00 20,9 15,4 37 20 ZZW 1012,2 10
13.10.2018 00:00:00 20,2 15,8 28 15 Z 1013,3 10
12.10.2018 23:00:00 20,0 16,0 35 19 Z 1013,6 10
12.10.2018 22:00:00 19,9 16,1 31 17 Z 1013,6 10
12.10.2018 21:00:00 20,1 17,1 31 17 Z 1013,7 10
12.10.2018 20:00:00 19,9 17,5 24 13 Z 1013,8 10
12.10.2018 19:00:00 20,3 17,7 28 15 Z 1013,4 10
12.10.2018 18:00:00 20,7 17,7 26 14 Z 1013,6 10
12.10.2018 17:00:00 20,8 17,5 31 17 ZZW 1013,5 10
12.10.2018 16:00:00 21,8 17,3 34 18 ZZW 1013,2 30
12.10.2018 15:00:00 21,3 17,8 34 18 Z 1013,0 10
12.10.2018 14:00:00 21,1 17,1 34 18 Z 1013,2 8
12.10.2018 13:00:00 21,0 17,0 34 18 Z 1012,9 10
12.10.2018 12:00:00 21,3 16,2 39 21 Z 1012,2 10
12.10.2018 11:00:00 20,1 15,7 35 19 Z 1012,0 10
12.10.2018 10:00:00 18,5 14,8 35 19 Z 1012,1 30
12.10.2018 09:00:00 18,3 13,8 31 17 Z 1011,0 10
12.10.2018 08:00:00 18,7 13,3 31 17 Z 1010,3 30
12.10.2018 07:00:00 17,9 13,6 18 10 Z 1010,5 30
12.10.2018 06:00:00 18,0 12,9 24 13 Z 1010,2 10
12.10.2018 05:00:00 17,7 12,4 18 10 Z 1010,6 10
12.10.2018 04:00:00 17,5 12,0 22 12 Z 1010,4 10
12.10.2018 03:00:00 17,3 11,6 24 13 ZZO 1010,5 10
12.10.2018 02:00:00 17,1 11,1 22 12 Z 1010,7 10
12.10.2018 01:00:00 17,1 11,1 31 17 Z 1010,4 30
12.10.2018 00:00:00 16,9 11,0 24 13 Z 1010,4 10
11.10.2018 23:00:00 16,8 9,9 24 13 Z 1010,3 10
11.10.2018 22:00:00 17,1 10,0 26 14 Z 1010,0 10
11.10.2018 21:00:00 16,9 11,2 22 12 Z 1009,9 10
11.10.2018 20:00:00 17,2 10,1 15 8 Z 1009,8 10
11.10.2018 19:00:00 18,3 9,3 22 12 ZZW 1009,2 30
11.10.2018 18:00:00 19,8 8,9 29 16 ZW 1008,7 10
11.10.2018 17:00:00 20,6 9,0 22 12 ZZW 1008,6 10
11.10.2018 16:00:00 19,9 9,3 26 14 ZZW 1008,5 30
11.10.2018 15:00:00 20,2 9,2 24 13 ZZW 1007,9 30
11.10.2018 14:00:00 19,9 10,2 13 7 WZW 1008,1 30
11.10.2018 13:00:00 18,3 9,8 18 10 WZW 1007,7 10
11.10.2018 12:00:00 17,8 10,9 13 7 WZW 1007,1 10
11.10.2018 11:00:00 15,8 12,2 16 9 ZZW 1006,7 10
11.10.2018 10:00:00 14,1 12,5 9 5 Z 1005,5 10
11.10.2018 09:00:00 14,1 11,8 15 8 WZW 1004,3 10
11.10.2018 08:00:00 14,6 12,2 8 4 W 1003,1 7
11.10.2018 07:00:00 15,0 14,2 2 1 - 1002,4 7
11.10.2018 06:00:00 15,1 14,3 4 2 - 1001,8 4,0
11.10.2018 05:00:00 15,9 13,9 8 4 - 1001,0 10

tt = temperatuur
td = dauwpunt
ff = windsnelheid
dd = windrichting
ppp = luchtdruk
vv = zicht

Weerstations in de omgeving